weather.gov     
National Weather Service

Regional Weather Roundup
NWS Homepage
This page is being discontinued on March 12, 2014.
The same data is available at this site. Please update your bookmarks.
Thank you, and we apologize for the inconvenience.
Please send an email to SR-SRH.Webmaster@noaa.gov with any concerns.


Current Version
Previous Version:    01  02  03  04  05  06  07  08  09  10  11  12  13  14  15  16  17  18  19  20  21  22  23  24  25  26  27  28  29  30  
   31  32  33  34  35  36  37  38  39  40  41  42  43  44  45  46  47  48  49  50  51  52  53  54  55  56  57  58  59  60  
[Printable]
326
ASCA44 KEWX 250020
RWRMX

LATIN AMERICA AND CARIBBEAN REGIONAL WEATHER ROUNDUP
NATIONAL WEATHER SERVICE AUSTIN/SAN ANTONIO TX
700 PM CDT FRI OCT 24 2014

NOTE: "FAIR" INDICATED FEW OR NO CLOUDS BELOW 12,000 FEET WITH NO
SIGNIFICANT WEATHER AND/OR OBSTRUCTIONS TO VISIBILITY.

BAJA CALIFORNIA

CITY           SKY/WX    TMP DP  RH WIND       PRES   REMARKS
LORETO         CLEAR     88  66  48 CALM      29.86S HX  90
LA PAZ         CLEAR     90  59  35 NW9       29.89
MEXICALI       SUNNY     95  36  12 SE7       29.87  HX  90
S.J. DEL CABO  CLEAR     86  70  58 S9        29.91R HX  90
TIJUANA        SUNNY     84  52  32 NW6       29.96S

NORTHWESTERN MEXICO

CITY           SKY/WX    TMP DP  RH WIND       PRES   REMARKS
CULIACAN       CLEAR     95  73  49 W14       29.83  HX 105
DURANGO        PTCLDY    75  45  33 N7        30.27S
GUAYMAS        CLEAR     90  73  58 S9        29.81  HX  98
HERMOSILLO     CLEAR     99  54  22 CALM      29.89  HX  96
CD. JUAREZ     CLEAR     79  61  53 CALM      30.12
LOS MOCHIS     CLEAR     88  68  51 W14       29.86R HX  91
OBREGON        CLEAR     93  68  43 SW12      29.82  HX  97

NORTHEASTERN MEXICO

CITY           SKY/WX    TMP DP  RH WIND       PRES   REMARKS
CHIHUAHUA      CLEAR     77  48  36 E6        30.20
MATAMOROS      PTCLDY    77  68  73 N5        30.10
MONTERREY      PTCLDY    77  64  65 E5        30.10R
NUEVO LAREDO   PTCLDY    88  64  45 CALM      30.06
PIEDRAS NEGRAS PTCLDY    84  63  48 SE6       30.08S
REYNOSA        PTCLDY    77  61  57 E9        30.08
SALTILLO       CLEAR     70  61  73 N12       30.26R
TORREON        PTCLDY    81  50  34 N6        30.15S
CD. VICTORIA   PTCLDY    77  64  65 NE6       30.08

WESTERN MEXICO

CITY           SKY/WX    TMP DP  RH WIND       PRES   REMARKS
AGUASCALIENTES PTCLDY    72  41  33 NE6       30.26
COLIMA         MOCLDY    77  75  94 W9        29.97R
DEL BAJIO      PTCLDY    72  48  43 CALM      30.29R
GUADALAJARA    CLEAR     79  52  38 E6        30.14
MANZANILLO     PTCLDY    86  77  74 W12       29.79R HX  97
MAZATLAN       CLEAR     84  72  65 W10       29.82R
P. VALLARTA    MOCLDY    86  77  74 S10       29.83R HX  97
URUAPAN        MOCLDY    70  63  78 S7        30.17R
ZACATECAS      PTCLDY    68  39  34 NE6       30.31S

CENTRAL MEXICO

CITY           SKY/WX    TMP DP  RH WIND       PRES   REMARKS
CUERNAVACA     MOCLDY    73  61  64 CALM      30.09S
MEXICO CITY    MOCLDY    64  46  52 N14       30.35R
MORELIA        CLEAR     70  50  49 NE7       30.23
POZA RICA      MOCLDY    72  70  94 CALM      30.09S
PUEBLA         MOCLDY    63  46  55 N9        30.33R
QUERETARO      MOCLDY    68  48  49 E17       30.33R
S. LUIS POTOSI PTCLDY    68  48  49 E8        30.28S
TAMPICO        CLEAR     79  64  61 NE14      30.05R
TOLUCA         MOCLDY    57  43  58 E13       30.39R

SOUTHERN MEXICO

CITY           SKY/WX    TMP DP  RH WIND       PRES   REMARKS
ACAPULCO       PTCLDY    84  79  84 W9        29.81S HX  96
B. DE HUATULCO MOCLDY    82  73  74 CALM      29.88
OAXACA         MOCLDY    72  48  43 NE9       30.20R
P. ESCONDIDO   MOCLDY    82  72  69 SW7       30.00S
VERACRUZ       CLOUDY    75  68  78 N17G29    30.00R
ZIHUATANEJO    MOCLDY    84  72  65 CALM      29.84S

YUCATAN PENINSULA

CITY           SKY/WX    TMP DP  RH WIND       PRES   REMARKS
CAMPECHE       MOCLDY    79  72  78 NE25      29.88R
CANCUN         MOCLDY    81  73  78 NE9       29.84R
CHETUMAL       RAIN      75  75 100 NW12      29.83R
CD. DEL CARMEN MOCLDY    82  73  74 N20       29.91
COZUMEL        CLOUDY    75  75 100 NE16      29.83R
MERIDA         MOCLDY    79  70  73 N9        29.91R
MINATITLAN     MOCLDY    81  68  65 NW17      29.87
TAPACHULA      RAIN      77  75  94 NE8       29.87R VSB 3/4
TUX. GUTIERREZ CLOUDY    72  63  73 NW14      29.99R
VILLAHERMOSA   MOCLDY    79  73  83 CALM      29.97R

CENTRAL AMERICA

CITY           SKY/WX    TMP DP  RH WIND       PRES   REMARKS
BELIZE CITY    TSTM      77  75  94 N5        29.83R
MANAGUA        PTCLDY    82  77  83 SW5       29.77R SMOKE   HX  91

CARIBBEAN

CITY           SKY/WX    TMP DP  RH WIND       PRES   REMARKS
ARUBA          PTCLDY    84  77  79 E12       29.77R HX  94
CURACAO          N/A     82  75  78 SE9       29.80R
KINGSTON       PTCLDY    84  77  79 SE12      29.80S HX  94
NASSAU         MOCLDY    77  75  94 SW2       29.75S
SAN JUAN       CLEAR     84  75  74 SE3       29.90R HX  92
SANTO DOMINGO  PTCLDY    82  77  83 S5        29.86R HX  91
ST. KITTS      PTCLDY    82  77  83 E12       29.92R HX  91
ST. MAARTEN    PTCLDY    84  75  74 E7        29.92R HX  92
ST. THOMAS     PTCLDY    82  75  78 E9        29.91

$$





U.S. Dept. of Commerce
NOAA National Weather Service
1325 East West Highway
Silver Spring, MD 20910
E-mail: w-nws.webmaster@noaa.gov
Page last modified: May 16, 2007
NATIONAL WEATHER SERVICE: for Safety, for Work, for Fun - FOR LIFE